TimePDT,TemperatureF,Dew PointF,Humidity,Sea Level PressureIn,VisibilityMPH,Wind Direction,Wind SpeedMPH,Gust SpeedMPH,PrecipitationIn,Events,Conditions,WindDirDegrees,DateUTC
12:55 AM,52.0,34.0,50,29.98,7.0,NW,4.6,-,N/A,,Clear,310,2012-10-09 07:55:00
1:55 AM,52.0,35.1,53,29.99,7.0,WNW,6.9,-,N/A,,Clear,290,2012-10-09 08:55:00
2:55 AM,51.1,36.0,56,30.00,8.0,West,6.9,-,N/A,,Clear,280,2012-10-09 09:55:00
3:55 AM,50.0,36.0,59,30.01,8.0,Calm,Calm,-,N/A,,Clear,0,2012-10-09 10:55:00
4:55 AM,51.1,36.0,56,30.02,9.0,NW,5.8,-,N/A,,Clear,310,2012-10-09 11:55:00
5:55 AM,48.0,36.0,63,30.04,10.0,WNW,4.6,-,N/A,,Clear,300,2012-10-09 12:55:00
6:55 AM,46.9,37.0,68,30.05,9.0,NW,3.5,-,N/A,,Clear,310,2012-10-09 13:55:00
7:55 AM,48.0,36.0,63,30.06,7.0,Calm,Calm,-,N/A,,Clear,0,2012-10-09 14:55:00
8:55 AM,53.1,37.9,57,30.07,8.0,Calm,Calm,-,N/A,,Clear,0,2012-10-09 15:55:00
9:55 AM,55.0,39.0,55,30.08,5.0,West,6.9,-,N/A,,Haze,280,2012-10-09 16:55:00
10:55 AM,59.0,39.0,48,30.06,6.0,Calm,Calm,-,N/A,,Haze,0,2012-10-09 17:55:00
11:55 AM,63.0,39.9,43,30.05,7.0,Calm,Calm,-,N/A,,Clear,0,2012-10-09 18:55:00
12:55 PM,68.0,39.9,36,30.03,8.0,Calm,Calm,-,N/A,,Clear,0,2012-10-09 19:55:00
1:55 PM,71.1,37.9,30,30.00,10.0,ESE,6.9,-,N/A,,Clear,110,2012-10-09 20:55:00
2:55 PM,73.0,37.0,27,29.99,10.0,ESE,10.4,-,N/A,,Clear,110,2012-10-09 21:55:00
3:55 PM,73.0,36.0,26,29.97,10.0,SE,11.5,-,N/A,,Clear,130,2012-10-09 22:55:00
4:55 PM,71.1,36.0,28,29.96,10.0,ESE,8.1,-,N/A,,Clear,120,2012-10-09 23:55:00
5:55 PM,66.9,37.9,34,29.96,10.0,East,8.1,-,N/A,,Clear,100,2012-10-10 00:55:00
6:55 PM,62.1,39.0,43,29.96,10.0,East,9.2,-,N/A,,Clear,90,2012-10-10 01:55:00
7:55 PM,61.0,37.9,42,29.96,10.0,East,9.2,-,N/A,,Clear,80,2012-10-10 02:55:00
8:55 PM,60.1,39.0,46,29.96,10.0,Calm,Calm,-,N/A,,Clear,0,2012-10-10 03:55:00
9:55 PM,57.0,37.9,49,29.97,10.0,ENE,5.8,-,N/A,,Clear,70,2012-10-10 04:55:00
10:55 PM,57.0,37.0,47,29.97,10.0,Calm,Calm,-,N/A,,Clear,0,2012-10-10 05:55:00
11:55 PM,52.0,37.0,57,29.96,10.0,East,3.5,-,N/A,,Clear,80,2012-10-10 06:55:00